CZ-6A DEB, 54986

Orbit data source: Space-Track

CZ-6A DEB, 54986 is space debris in SSO originally from a launch on Fri, 11 Nov 2022 UTC launched from the Taiyaun Space Center, China (TSC). Debris objects in space refer to the collection of defunct objects orbiting the Earth. Examples of debris include non-operational satellites, rocket bodies, and fragments generated from explosions, collisions, or faulty payload assembly.

Loading next visibility...
Identifier
54986, 2022-151UB
Orbit
SSO
Country
Flag of CNCN / PRC
Related business
Manufacturer
SAST
Mission
Spacecraft
Bus & Motor
Unknown
Mass
Unknown
Launch date (UTC)
2022-11-11 (3 years ago)
Launch vehicle
Unknown
Launch site
Taiyaun Space Center, China (TSC)
Object type
Payload
Rocket body
Debris
Shape & HBR
Unknown shape, 0.1 m
Radar Cross Section
Small (<0.1 m²)

Expand to show TLE details & history
Last TLE update: 17 hours ago

TLE from 17 hours ago
0 CZ-6A DEB
1 54986U 22151UB  25354.93385286  .00002191  00000-0  10542-2 0  9993
2 54986  98.8123 358.6044 0041600  82.9906 277.5999 14.19370374159079
Epoch: 2025-12-20T22:24Z
TLE epoch observation values (Epoch: 2025-12-20T22:24:44.887Z)
Latitude
0.00005°
Longitude
-67.33618°
Altitude
826.551 km
Speed
7.442 km/s
True Right ascension
23h 54m 25s
True Declination
0° 00' 00"
Sunlit
Object was in daylight at epoch
Visualization orbit readout
Latitude
Unknown
Longitude
Unknown
Altitude
Unknown
Speed
Unknown
Apparent Right ascension
Unknown
Apparent Declination
Unknown
Sunlit
N/A
Visualization observer readout
Local Sidereal Time
13:58:43
Azimuth
Unknown
Elevation
Unknown
Doppler factor
Unknown
Orbital elements
Apogee altitude
854.611 km
Perigee altitude
794.684 km
Semi-major axis
7,202.784 km
Eccentricity
0.00416
Inclination
98.8123°
RAAN
358.6044°
Arg. of periapsis
82.9906°
True anomaly
277.12707°
Mean anomaly
277.5999°
Eccentric anomaly
277.36352°
Mean motion
3.55052 °/min
Orbital period
101.39 mins
BSTAR
0.0010542
Loading maneuver chart data...
Computing Atmospheric mass density...
Loading historical data...
Loading historical data...
Loading historical data...
Loading historical data...
Loading historical data...
Loading historical data...
Loading historical data...

Documentation

Showing up to 5 results
|